AAL2535 KSAN-KDFW

Flight info

Callsign AAL2535
Flight time N/A
Altitude 35000
Route ZZOOO4 GBN J50 SSO J4 INK GEEKY SOCKK4
Aircraft A21N/M-SDE3FGHIRWY/LB1

Departure

Time 2026-05-07 04:46
Airport San Diego International Airport (KSAN)

Arrival

Time N/A
Airport Dallas Fort Worth International Airport (KDFW)
Time Latitude Longitude Altitude Speed Heading
2026-05-07 04:13 32.73293 -117.20169 20 ft 0 kts 92°
2026-05-07 04:29 32.73294 -117.20178 20 ft 2 kts 92°
2026-05-07 04:29 32.73294 -117.20194 20 ft 2 kts 93°
2026-05-07 04:30 32.73295 -117.20207 19 ft 2 kts 92°
2026-05-07 04:30 32.73294 -117.20225 19 ft 2 kts 75°
2026-05-07 04:30 32.73288 -117.20243 19 ft 2 kts 62°
2026-05-07 04:30 32.73282 -117.20255 19 ft 0 kts 51°
2026-05-07 04:31 32.73284 -117.20253 19 ft 3 kts 43°
2026-05-07 04:31 32.73310 -117.20252 20 ft 6 kts 340°
2026-05-07 04:31 32.73337 -117.20261 20 ft 1 kts 343°
2026-05-07 04:31 32.73339 -117.20262 20 ft 0 kts 343°
2026-05-07 04:35 32.73340 -117.20262 20 ft 0 kts 343°
2026-05-07 04:35 32.73349 -117.20265 20 ft 2 kts 343°
2026-05-07 04:35 32.73373 -117.20274 20 ft 4 kts 346°
2026-05-07 04:36 32.73406 -117.20274 20 ft 5 kts 12°
2026-05-07 04:36 32.73425 -117.20268 20 ft 2 kts 15°
2026-05-07 04:36 32.73426 -117.20267 20 ft 0 kts 15°
2026-05-07 04:38 32.73427 -117.20267 20 ft 0 kts 15°
2026-05-07 04:38 32.73433 -117.20265 20 ft 1 kts 15°
2026-05-07 04:38 32.73444 -117.20262 20 ft 2 kts 15°
2026-05-07 04:39 32.73466 -117.20255 20 ft 4 kts 15°
2026-05-07 04:39 32.73512 -117.20239 20 ft 9 kts 19°
2026-05-07 04:39 32.73544 -117.20186 20 ft 9 kts 85°
2026-05-07 04:39 32.73531 -117.20113 20 ft 10 kts 106°
2026-05-07 04:40 32.73512 -117.20036 20 ft 11 kts 105°
2026-05-07 04:40 32.73491 -117.19949 20 ft 11 kts 106°
2026-05-07 04:40 32.73470 -117.19858 20 ft 12 kts 106°
2026-05-07 04:40 32.73447 -117.19769 21 ft 12 kts 107°
2026-05-07 04:41 32.73424 -117.19675 21 ft 13 kts 106°
2026-05-07 04:41 32.73399 -117.19570 22 ft 15 kts 107°
2026-05-07 04:41 32.73370 -117.19458 23 ft 16 kts 106°
2026-05-07 04:41 32.73341 -117.19334 23 ft 17 kts 105°
2026-05-07 04:42 32.73309 -117.19199 22 ft 19 kts 105°
2026-05-07 04:42 32.73273 -117.19053 22 ft 21 kts 105°
2026-05-07 04:42 32.73236 -117.18895 21 ft 22 kts 106°
2026-05-07 04:42 32.73195 -117.18729 20 ft 23 kts 105°
2026-05-07 04:43 32.73152 -117.18554 20 ft 24 kts 105°
2026-05-07 04:43 32.73108 -117.18372 20 ft 24 kts 106°
2026-05-07 04:43 32.73063 -117.18188 20 ft 25 kts 106°
2026-05-07 04:43 32.73018 -117.17999 20 ft 25 kts 106°
2026-05-07 04:44 32.72975 -117.17821 23 ft 22 kts 106°
2026-05-07 04:44 32.72957 -117.17660 25 ft 20 kts 71°
2026-05-07 04:44 32.73024 -117.17622 26 ft 12 kts 304°
2026-05-07 04:44 32.73044 -117.17680 26 ft 0 kts 288°
2026-05-07 04:45 32.73047 -117.17693 26 ft 8 kts 287°
2026-05-07 04:45 32.73095 -117.17886 23 ft 59 kts 286°
2026-05-07 04:45 32.73265 -117.18585 22 ft 128 kts 287°
2026-05-07 04:45 32.73537 -117.19707 160 ft 169 kts 286°
2026-05-07 04:46 32.73834 -117.20952 757 ft 174 kts 287°
2026-05-07 04:46 32.74153 -117.22274 1364 ft 186 kts 287°
2026-05-07 04:46 32.74506 -117.23729 1988 ft 200 kts 288°
2026-05-07 04:46 32.74862 -117.25192 2559 ft 208 kts 288°
2026-05-07 04:47 32.75234 -117.26723 3137 ft 216 kts 288°
2026-05-07 04:47 32.75618 -117.28310 3696 ft 225 kts 288°
2026-05-07 04:47 32.76023 -117.29985 4205 ft 233 kts 289°
2026-05-07 04:47 32.76427 -117.31695 4781 ft 236 kts 285°
2026-05-07 04:48 32.76442 -117.33529 5340 ft 244 kts 255°
2026-05-07 04:48 32.75637 -117.35178 5789 ft 251 kts 224°
2026-05-07 04:48 32.74227 -117.36149 5959 ft 254 kts 193°
2026-05-07 04:48 32.72633 -117.36161 5965 ft 261 kts 162°
2026-05-07 04:49 32.71172 -117.35194 5969 ft 270 kts 133°
2026-05-07 04:49 32.70032 -117.33652 5977 ft 272 kts 127°
2026-05-07 04:49 32.68917 -117.32079 6169 ft 280 kts 128°
2026-05-07 04:49 32.67737 -117.30492 6907 ft 281 kts 129°
2026-05-07 04:50 32.66545 -117.28942 7781 ft 278 kts 129°
2026-05-07 04:50 32.65352 -117.27417 8516 ft 279 kts 129°
2026-05-07 04:50 32.64133 -117.25854 9253 ft 278 kts 125°
2026-05-07 04:50 32.63198 -117.24065 9913 ft 273 kts 105°
2026-05-07 04:51 32.62806 -117.21986 10599 ft 269 kts 92°
2026-05-07 04:51 32.62644 -117.19913 11242 ft 271 kts 90°
2026-05-07 04:51 32.62486 -117.17816 11886 ft 274 kts 91°
2026-05-07 04:51 32.62312 -117.15637 12526 ft 277 kts 91°
2026-05-07 04:52 32.62123 -117.13442 13136 ft 280 kts 92°
2026-05-07 04:52 32.62045 -117.11234 13742 ft 279 kts 83°
2026-05-07 04:52 32.62358 -117.09014 14349 ft 279 kts 71°
2026-05-07 04:52 32.62987 -117.06889 14965 ft 281 kts 66°
2026-05-07 04:53 32.63688 -117.04778 15557 ft 283 kts 66°
2026-05-07 04:53 32.64404 -117.02634 16143 ft 286 kts 66°
2026-05-07 04:53 32.65118 -117.00475 16728 ft 288 kts 65°
2026-05-07 04:53 32.65826 -116.98314 17297 ft 291 kts 67°
2026-05-07 04:54 32.66390 -116.96003 17696 ft 302 kts 74°
2026-05-07 04:54 32.66688 -116.93542 17951 ft 318 kts 82°
2026-05-07 04:54 32.66784 -116.90916 18205 ft 331 kts 84°
2026-05-07 04:54 32.66842 -116.88188 18441 ft 344 kts 84°
2026-05-07 04:55 32.66897 -116.85342 18673 ft 357 kts 84°
2026-05-07 04:55 32.66957 -116.82389 19028 ft 364 kts 84°
2026-05-07 04:55 32.67020 -116.79456 19545 ft 367 kts 84°
2026-05-07 04:55 32.67085 -116.76471 20090 ft 369 kts 84°
2026-05-07 04:56 32.67085 -116.73469 20577 ft 372 kts 86°
2026-05-07 04:56 32.67041 -116.70445 21068 ft 374 kts 86°
2026-05-07 04:56 32.66991 -116.67406 21579 ft 376 kts 86°
2026-05-07 04:56 32.66940 -116.64354 22054 ft 378 kts 86°
2026-05-07 04:57 32.66891 -116.61289 22500 ft 381 kts 86°
2026-05-07 04:57 32.66841 -116.58233 22927 ft 384 kts 86°
2026-05-07 04:57 32.66789 -116.55121 23098 ft 385 kts 86°
2026-05-07 04:57 32.66736 -116.52013 23094 ft 384 kts 85°
2026-05-07 04:58 32.66685 -116.48910 23102 ft 384 kts 86°
2026-05-07 04:58 32.66634 -116.45802 23106 ft 383 kts 85°
2026-05-07 04:58 32.66663 -116.42712 23107 ft 381 kts 82°
2026-05-07 04:58 32.66834 -116.39644 23106 ft 378 kts 79°
2026-05-07 04:59 32.67101 -116.36607 23107 ft 378 kts 79°
2026-05-07 04:59 32.67382 -116.33564 23115 ft 378 kts 79°
2026-05-07 04:59 32.67665 -116.30496 23112 ft 378 kts 79°
2026-05-07 04:59 32.67942 -116.27466 23114 ft 377 kts 79°
2026-05-07 05:00 32.68217 -116.24435 23119 ft 378 kts 79°
2026-05-07 05:00 32.68492 -116.21407 23113 ft 377 kts 79°
2026-05-07 05:00 32.68764 -116.18378 23110 ft 378 kts 79°
2026-05-07 05:00 32.69038 -116.15323 23101 ft 379 kts 79°
2026-05-07 05:01 32.69307 -116.12296 23090 ft 377 kts 79°
2026-05-07 05:01 32.69580 -116.09225 23077 ft 378 kts 79°
2026-05-07 05:01 32.69850 -116.06202 23065 ft 378 kts 79°
2026-05-07 05:01 32.70121 -116.03142 23061 ft 377 kts 79°
2026-05-07 05:02 32.70399 -116.00098 23040 ft 377 kts 79°
2026-05-07 05:02 32.70680 -115.97078 23019 ft 376 kts 79°
2026-05-07 05:02 32.70965 -115.94033 23007 ft 377 kts 79°
2026-05-07 05:02 32.71248 -115.90980 23000 ft 377 kts 79°
2026-05-07 05:03 32.71529 -115.87958 22996 ft 377 kts 79°
2026-05-07 05:03 32.71811 -115.84892 22992 ft 377 kts 79°
2026-05-07 05:03 32.72090 -115.81833 22992 ft 377 kts 79°
2026-05-07 05:03 32.72367 -115.78810 22987 ft 376 kts 79°
2026-05-07 05:04 32.72643 -115.75757 22984 ft 375 kts 79°
2026-05-07 05:04 32.72918 -115.72742 22973 ft 376 kts 79°
2026-05-07 05:04 32.73191 -115.69724 22960 ft 376 kts 79°
2026-05-07 05:04 32.73465 -115.66705 22965 ft 376 kts 79°
2026-05-07 05:05 32.73738 -115.63657 22967 ft 375 kts 79°
2026-05-07 05:05 32.74011 -115.60647 22969 ft 375 kts 79°
2026-05-07 05:05 32.74283 -115.57605 22964 ft 374 kts 79°
2026-05-07 05:05 32.74552 -115.54579 22968 ft 375 kts 79°
2026-05-07 05:06 32.74806 -115.51541 22965 ft 375 kts 81°
2026-05-07 05:06 32.74945 -115.48499 22968 ft 377 kts 83°
2026-05-07 05:06 32.75023 -115.45433 22969 ft 377 kts 83°
2026-05-07 05:06 32.75095 -115.42381 22963 ft 376 kts 83°
2026-05-07 05:07 32.75168 -115.39343 22982 ft 378 kts 83°
2026-05-07 05:07 32.75240 -115.36237 23277 ft 381 kts 83°
2026-05-07 05:07 32.75312 -115.33137 23836 ft 380 kts 84°